Time,TemperatureF,DewpointF,PressureIn,WindDirection,WindDirectionDegrees,WindSpeedMPH,WindSpeedGustMPH,Humidity,HourlyPrecipIn,Conditions,Clouds,dailyrainin,SolarRadiationWatts/m^2,SoftwareType,DateUTC
2013-04-05 07:21:00,0.0,0.0,30.06,ENE,68,1.6,2.2,0,-99.99,,---,-99.99,0.00,VWS V14.01,2013-04-05 12:21:00,
2013-04-05 07:23:00,0.0,0.0,30.06,ENE,68,2.0,2.2,0,-99.99,,---,-99.99,0.00,VWS V14.01,2013-04-05 12:23:00,
2013-04-05 07:28:00,37.0,11.3,30.06,ENE,68,3.1,3.4,34,-99.99,,---,-99.99,0.00,VWS V14.01,2013-04-05 12:28:00,
2013-04-05 07:31:00,37.0,11.3,30.06,ENE,68,3.1,3.4,34,-99.99,,---,-99.99,0.00,VWS V14.01,2013-04-05 12:31:00,
2013-04-05 07:37:00,37.6,12.4,30.06,NNE,22,1.1,2.9,35,-99.99,,---,-99.99,0.00,VWS V14.01,2013-04-05 12:37:00,
2013-04-05 07:42:00,37.6,12.4,30.06,NE,45,3.8,3.8,35,-99.99,,---,-99.99,0.00,VWS V14.01,2013-04-05 12:42:00,
2013-04-05 07:48:00,38.5,13.9,30.06,NNE,22,3.6,4.0,36,-99.99,,---,-99.99,0.00,VWS V14.01,2013-04-05 12:48:00,
2013-04-05 07:54:00,39.2,15.1,30.06,ENE,68,3.4,3.4,37,-99.99,,---,-99.99,0.00,VWS V14.01,2013-04-05 12:54:00,
2013-04-05 07:59:00,39.4,15.3,30.09,ENE,68,6.0,6.0,37,-99.99,,---,-99.99,0.00,VWS V14.01,2013-04-05 12:59:00,
2013-04-05 08:05:00,39.4,15.3,30.09,ENE,68,6.0,6.0,37,-99.99,,---,-99.99,0.00,VWS V14.01,2013-04-05 13:05:00,
2013-04-05 08:12:00,40.3,16.1,30.09,ENE,68,5.4,5.4,37,-99.99,,---,-99.99,0.00,VWS V14.01,2013-04-05 13:12:00,
2013-04-05 08:17:00,41.0,15.5,30.09,ENE,68,4.9,4.9,35,-99.99,,---,-99.99,0.00,VWS V14.01,2013-04-05 13:17:00,
2013-04-05 08:22:00,41.5,15.9,30.09,ENE,68,5.4,5.4,35,-99.99,,---,-99.99,0.00,VWS V14.01,2013-04-05 13:22:00,
2013-04-05 08:27:00,41.9,15.6,30.09,ENE,68,3.6,7.4,34,-99.99,,---,-99.99,0.00,VWS V14.01,2013-04-05 13:27:00,
2013-04-05 08:33:00,42.4,15.4,30.09,East,90,5.4,6.0,33,-99.99,,---,-99.99,0.00,VWS V14.01,2013-04-05 13:33:00,
2013-04-05 08:40:00,43.2,15.3,30.09,ENE,68,3.8,5.4,32,-99.99,,---,-99.99,0.00,VWS V14.01,2013-04-05 13:40:00,
2013-04-05 08:46:00,43.5,14.2,30.09,East,90,18.6,18.6,30,-99.99,,---,-99.99,0.00,VWS V14.01,2013-04-05 13:46:00,
2013-04-05 08:52:00,44.1,14.6,30.09,East,90,8.7,8.7,30,-99.99,,---,-99.99,0.00,VWS V14.01,2013-04-05 13:52:00,
2013-04-05 08:58:00,44.1,14.6,30.09,ENE,68,5.4,5.4,30,-99.99,,---,-99.99,0.00,VWS V14.01,2013-04-05 13:58:00,
2013-04-05 09:03:00,44.1,14.6,30.09,ENE,68,4.3,7.2,30,-99.99,,---,-99.99,0.00,VWS V14.01,2013-04-05 14:03:00,
2013-04-05 09:09:00,45.5,14.3,30.09,ENE,68,6.0,7.2,28,-99.99,,---,-99.99,0.00,VWS V14.01,2013-04-05 14:09:00,
2013-04-05 09:14:00,45.9,14.6,30.09,ESE,112,7.8,7.8,28,-99.99,,---,-99.99,0.00,VWS V14.01,2013-04-05 14:14:00,
2013-04-05 09:20:00,46.8,14.6,30.09,ENE,68,4.0,6.3,27,-99.99,,---,-99.99,0.00,VWS V14.01,2013-04-05 14:20:00,
2013-04-05 09:26:00,47.1,14.9,30.09,East,90,4.9,6.3,27,-99.99,,---,-99.99,0.00,VWS V14.01,2013-04-05 14:26:00,
2013-04-05 09:31:00,47.5,15.2,30.09,SE,135,5.6,5.6,27,-99.99,,---,-99.99,0.00,VWS V14.01,2013-04-05 14:31:00,
2013-04-05 09:38:00,48.4,15.1,30.09,ESE,112,8.7,8.7,26,-99.99,,---,-99.99,0.00,VWS V14.01,2013-04-05 14:38:00,
2013-04-05 09:44:00,49.8,14.5,30.09,ESE,112,9.8,9.8,24,-99.99,,---,-99.99,0.00,VWS V14.01,2013-04-05 14:44:00,
2013-04-05 09:50:00,50.0,14.6,30.09,ESE,112,8.7,8.7,24,-99.99,,---,-99.99,0.00,VWS V14.01,2013-04-05 14:50:00,
2013-04-05 09:55:00,50.5,15.1,30.09,SE,135,6.5,7.2,24,-99.99,,---,-99.99,0.00,VWS V14.01,2013-04-05 14:55:00,
2013-04-05 10:02:00,50.9,12.4,30.09,SE,135,10.7,10.7,21,-99.99,,---,-99.99,0.00,VWS V14.01,2013-04-05 15:02:00,
2013-04-05 10:08:00,50.9,12.4,30.09,ESE,112,10.7,10.7,21,-99.99,,---,-99.99,0.00,VWS V14.01,2013-04-05 15:08:00,
2013-04-05 10:13:00,50.9,12.4,30.09,ESE,112,12.3,12.3,21,-99.99,,---,-99.99,0.00,VWS V14.01,2013-04-05 15:13:00,
2013-04-05 10:19:00,51.8,13.1,30.09,ESE,112,10.3,12.3,21,-99.99,,---,-99.99,0.00,VWS V14.01,2013-04-05 15:19:00,
2013-04-05 10:25:00,52.5,13.7,30.09,ESE,112,10.1,13.0,21,-99.99,,---,-99.99,0.00,VWS V14.01,2013-04-05 15:25:00,
2013-04-05 10:31:00,52.5,13.7,30.09,ESE,112,12.1,12.1,21,-99.99,,---,-99.99,0.00,VWS V14.01,2013-04-05 15:31:00,
2013-04-05 10:37:00,53.1,14.2,30.09,ESE,112,6.3,10.1,21,-99.99,,---,-99.99,0.00,VWS V14.01,2013-04-05 15:37:00,
2013-04-05 10:43:00,54.0,13.8,30.09,East,90,10.1,12.1,20,-99.99,,---,-99.99,0.00,VWS V14.01,2013-04-05 15:43:00,
2013-04-05 10:48:00,54.7,14.4,30.09,SE,135,8.1,10.5,20,-99.99,,---,-99.99,0.00,VWS V14.01,2013-04-05 15:48:00,
2013-04-05 10:54:00,54.7,14.4,30.09,SSE,158,7.2,7.2,20,-99.99,,---,-99.99,0.00,VWS V14.01,2013-04-05 15:54:00,
2013-04-05 10:59:00,55.8,15.3,30.09,ESE,112,8.7,8.7,20,-99.99,,---,-99.99,0.00,VWS V14.01,2013-04-05 15:59:00,
2013-04-05 11:04:00,55.9,15.5,30.09,South,180,6.9,6.9,20,-99.99,,---,-99.99,0.00,VWS V14.01,2013-04-05 16:04:00,
2013-04-05 11:09:00,56.5,15.9,30.09,SSE,158,7.2,13.2,20,-99.99,,---,-99.99,0.00,VWS V14.01,2013-04-05 16:09:00,
2013-04-05 11:14:00,56.5,15.9,30.09,SSE,158,7.2,7.2,20,-99.99,,---,-99.99,0.00,VWS V14.01,2013-04-05 16:14:00,
2013-04-05 11:20:00,56.7,16.1,30.09,East,90,6.0,6.0,20,-99.99,,---,-99.99,0.00,VWS V14.01,2013-04-05 16:20:00,
2013-04-05 11:25:00,57.2,15.3,30.09,SE,135,8.1,8.1,19,-99.99,,---,-99.99,0.00,VWS V14.01,2013-04-05 16:25:00,
2013-04-05 11:31:00,57.7,13.2,30.09,SSE,158,6.0,11.0,17,-99.99,,---,-99.99,0.00,VWS V14.01,2013-04-05 16:31:00,
2013-04-05 11:36:00,57.9,13.4,30.09,SE,135,12.3,12.3,17,-99.99,,---,-99.99,0.00,VWS V14.01,2013-04-05 16:36:00,
2013-04-05 11:41:00,58.1,13.5,30.09,SSE,158,4.3,4.3,17,-99.99,,---,-99.99,0.00,VWS V14.01,2013-04-05 16:41:00,
2013-04-05 11:46:00,58.1,13.5,30.09,SE,135,9.8,9.8,17,-99.99,,---,-99.99,0.00,VWS V14.01,2013-04-05 16:46:00,
2013-04-05 11:52:00,58.6,14.0,30.09,SSE,158,10.7,10.7,17,-99.99,,---,-99.99,0.00,VWS V14.01,2013-04-05 16:52:00,
2013-04-05 11:58:00,59.2,14.4,30.09,ESE,112,8.5,8.5,17,-99.99,,---,-99.99,0.00,VWS V14.01,2013-04-05 16:58:00,
2013-04-05 12:04:00,59.2,14.4,30.09,SSE,158,8.5,8.5,17,-99.99,,---,-99.99,0.00,VWS V14.01,2013-04-05 17:04:00,
2013-04-05 12:10:00,59.2,14.4,30.09,SSE,158,15.2,15.2,17,-99.99,,---,-99.99,0.00,VWS V14.01,2013-04-05 17:10:00,
2013-04-05 12:16:00,59.7,14.9,30.06,South,180,8.1,10.7,17,-99.99,,---,-99.99,0.00,VWS V14.01,2013-04-05 17:16:00,
2013-04-05 12:21:00,60.4,15.4,30.06,South,180,10.3,10.3,17,-99.99,,---,-99.99,0.00,VWS V14.01,2013-04-05 17:21:00,
2013-04-05 12:27:00,60.4,15.4,30.06,SE,135,9.4,9.4,17,-99.99,,---,-99.99,0.00,VWS V14.01,2013-04-05 17:27:00,
2013-04-05 12:32:00,60.6,15.6,30.06,SSE,158,7.4,7.4,17,-99.99,,---,-99.99,0.00,VWS V14.01,2013-04-05 17:32:00,
2013-04-05 12:37:00,61.0,14.5,30.06,SSE,158,4.7,4.7,16,-99.99,,---,-99.99,0.00,VWS V14.01,2013-04-05 17:37:00,
2013-04-05 12:42:00,61.2,14.6,30.06,SE,135,8.7,10.7,16,-99.99,,---,-99.99,0.00,VWS V14.01,2013-04-05 17:42:00,
2013-04-05 12:48:00,61.5,14.9,30.06,SSE,158,8.5,10.5,16,-99.99,,---,-99.99,0.00,VWS V14.01,2013-04-05 17:48:00,
2013-04-05 12:53:00,62.2,15.5,30.03,South,180,6.3,10.7,16,-99.99,,---,-99.99,0.00,VWS V14.01,2013-04-05 17:53:00,
2013-04-05 12:58:00,62.6,15.8,30.03,SSE,158,6.0,8.5,16,-99.99,,---,-99.99,0.00,VWS V14.01,2013-04-05 17:58:00,
2013-04-05 13:04:00,63.1,16.2,30.03,South,180,6.3,14.8,16,-99.99,,---,-99.99,0.00,VWS V14.01,2013-04-05 18:04:00,
2013-04-05 13:10:00,63.3,16.4,30.00,South,180,10.7,10.7,16,-99.99,,---,-99.99,0.00,VWS V14.01,2013-04-05 18:10:00,
2013-04-05 13:15:00,63.5,16.5,30.00,SE,135,5.6,13.6,16,-99.99,,---,-99.99,0.00,VWS V14.01,2013-04-05 18:15:00,
2013-04-05 13:20:00,63.5,16.5,30.03,SSW,202,6.5,6.5,16,-99.99,,---,-99.99,0.00,VWS V14.01,2013-04-05 18:20:00,
2013-04-05 13:25:00,63.5,16.5,30.03,South,180,6.5,14.3,16,-99.99,,---,-99.99,0.00,VWS V14.01,2013-04-05 18:25:00,
2013-04-05 13:30:00,63.7,16.7,30.03,SSE,158,10.3,10.3,16,-99.99,,---,-99.99,0.00,VWS V14.01,2013-04-05 18:30:00,
2013-04-05 13:35:00,64.2,17.1,30.03,SSE,158,9.8,12.3,16,-99.99,,---,-99.99,0.00,VWS V14.01,2013-04-05 18:35:00,
2013-04-05 13:41:00,64.6,15.9,30.03,SE,135,8.1,10.7,15,-99.99,,---,-99.99,0.00,VWS V14.01,2013-04-05 18:41:00,
2013-04-05 13:46:00,65.1,16.4,30.03,South,180,6.0,16.8,15,-99.99,,---,-99.99,0.00,VWS V14.01,2013-04-05 18:46:00,
2013-04-05 13:52:00,65.5,16.6,30.00,SSW,202,8.5,10.1,15,-99.99,,---,-99.99,0.00,VWS V14.01,2013-04-05 18:52:00,
2013-04-05 13:57:00,66.0,17.1,30.00,South,180,8.1,10.7,15,-99.99,,---,-99.99,0.00,VWS V14.01,2013-04-05 18:57:00,
2013-04-05 14:03:00,65.8,16.9,30.00,South,180,15.4,15.4,15,-99.99,,---,-99.99,0.00,VWS V14.01,2013-04-05 19:03:00,
2013-04-05 14:08:00,65.7,16.8,30.00,SE,135,8.5,8.5,15,-99.99,,---,-99.99,0.00,VWS V14.01,2013-04-05 19:08:00,
2013-04-05 14:13:00,65.7,16.8,30.00,SSE,158,9.6,10.5,15,-99.99,,---,-99.99,0.00,VWS V14.01,2013-04-05 19:13:00,
2013-04-05 14:18:00,65.7,16.8,30.00,South,180,9.2,12.1,15,-99.99,,---,-99.99,0.00,VWS V14.01,2013-04-05 19:18:00,
2013-04-05 14:24:00,65.8,16.9,30.00,SSW,202,9.4,9.4,15,-99.99,,---,-99.99,0.00,VWS V14.01,2013-04-05 19:24:00,
2013-04-05 14:29:00,65.8,16.9,30.00,SSE,158,13.6,13.6,15,-99.99,,---,-99.99,0.00,VWS V14.01,2013-04-05 19:29:00,
2013-04-05 14:35:00,66.6,17.5,30.00,SSE,158,6.3,11.4,15,-99.99,,---,-99.99,0.00,VWS V14.01,2013-04-05 19:35:00,
2013-04-05 14:40:00,66.9,17.8,29.97,South,180,13.0,14.8,15,-99.99,,---,-99.99,0.00,VWS V14.01,2013-04-05 19:40:00,
2013-04-05 14:46:00,66.9,17.8,29.97,SSE,158,12.1,12.1,15,-99.99,,---,-99.99,0.00,VWS V14.01,2013-04-05 19:46:00,
2013-04-05 14:51:00,67.5,18.2,29.97,South,180,9.2,9.2,15,-99.99,,---,-99.99,0.00,VWS V14.01,2013-04-05 19:51:00,
2013-04-05 14:57:00,67.3,18.1,29.97,South,180,7.8,8.7,15,-99.99,,---,-99.99,0.00,VWS V14.01,2013-04-05 19:57:00,
2013-04-05 15:02:00,67.1,17.9,29.97,SSE,158,18.8,18.8,15,-99.99,,---,-99.99,0.00,VWS V14.01,2013-04-05 20:02:00,
2013-04-05 15:07:00,67.3,18.1,29.94,SSE,158,7.4,7.4,15,-99.99,,---,-99.99,0.00,VWS V14.01,2013-04-05 20:07:00,
2013-04-05 15:13:00,67.5,18.2,29.94,SSE,158,10.5,10.5,15,-99.99,,---,-99.99,0.00,VWS V14.01,2013-04-05 20:13:00,
2013-04-05 15:19:00,67.5,18.2,29.94,South,180,5.4,5.4,15,-99.99,,---,-99.99,0.00,VWS V14.01,2013-04-05 20:19:00,
2013-04-05 15:24:00,67.8,18.5,29.97,SW,225,5.8,5.8,15,-99.99,,---,-99.99,0.00,VWS V14.01,2013-04-05 20:24:00,
2013-04-05 15:29:00,67.5,18.2,29.97,SSW,202,6.3,6.3,15,-99.99,,---,-99.99,0.00,VWS V14.01,2013-04-05 20:29:00,
2013-04-05 15:35:00,67.5,18.2,29.97,South,180,9.4,9.4,15,-99.99,,---,-99.99,0.00,VWS V14.01,2013-04-05 20:35:00,
2013-04-05 15:40:00,67.8,18.5,29.97,South,180,7.6,8.5,15,-99.99,,---,-99.99,0.00,VWS V14.01,2013-04-05 20:40:00,
2013-04-05 15:46:00,67.6,18.4,29.97,South,180,14.8,14.8,15,-99.99,,---,-99.99,0.00,VWS V14.01,2013-04-05 20:46:00,
2013-04-05 15:51:00,67.8,18.5,29.94,South,180,8.7,10.1,15,-99.99,,---,-99.99,0.00,VWS V14.01,2013-04-05 20:51:00,
2013-04-05 15:57:00,68.7,19.2,29.94,SSW,202,15.2,15.2,15,-99.99,,---,-99.99,0.00,VWS V14.01,2013-04-05 20:57:00,
2013-04-05 16:03:00,68.4,19.0,29.94,SSW,202,5.4,5.4,15,-99.99,,---,-99.99,0.00,VWS V14.01,2013-04-05 21:03:00,
2013-04-05 16:08:00,68.5,19.1,29.91,South,180,8.5,10.7,15,-99.99,,---,-99.99,0.00,VWS V14.01,2013-04-05 21:08:00,
2013-04-05 16:13:00,68.5,19.1,29.91,SSE,158,10.3,10.3,15,-99.99,,---,-99.99,0.00,VWS V14.01,2013-04-05 21:13:00,
2013-04-05 16:19:00,68.5,19.1,29.91,SSW,202,11.0,11.0,15,-99.99,,---,-99.99,0.00,VWS V14.01,2013-04-05 21:19:00,
2013-04-05 16:24:00,68.7,19.2,29.91,SSW,202,6.0,6.0,15,-99.99,,---,-99.99,0.00,VWS V14.01,2013-04-05 21:24:00,
2013-04-05 16:30:00,68.9,19.4,29.91,SSE,158,12.8,13.2,15,-99.99,,---,-99.99,0.00,VWS V14.01,2013-04-05 21:30:00,
2013-04-05 16:36:00,69.3,19.7,29.88,South,180,12.1,12.1,15,-99.99,,---,-99.99,0.00,VWS V14.01,2013-04-05 21:36:00,
2013-04-05 16:42:00,69.3,19.7,29.88,South,180,13.6,13.6,15,-99.99,,---,-99.99,0.00,VWS V14.01,2013-04-05 21:42:00,
2013-04-05 16:47:00,68.9,19.4,29.88,SSE,158,14.3,14.3,15,-99.99,,---,-99.99,0.00,VWS V14.01,2013-04-05 21:47:00,
2013-04-05 16:53:00,68.9,19.4,29.91,South,180,7.4,7.4,15,-99.99,,---,-99.99,0.00,VWS V14.01,2013-04-05 21:53:00,
2013-04-05 16:59:00,69.4,19.8,29.91,South,180,17.9,17.9,15,-99.99,,---,-99.99,0.00,VWS V14.01,2013-04-05 21:59:00,
2013-04-05 17:06:00,69.8,18.5,29.91,SSW,202,10.7,10.7,14,-99.99,,---,-99.99,0.00,VWS V14.01,2013-04-05 22:06:00,
2013-04-05 17:11:00,69.3,19.7,29.88,South,180,8.5,8.7,15,-99.99,,---,-99.99,0.00,VWS V14.01,2013-04-05 22:11:00,
2013-04-05 17:17:00,69.4,19.8,29.88,SSE,158,9.6,10.1,15,-99.99,,---,-99.99,0.00,VWS V14.01,2013-04-05 22:17:00,
2013-04-05 17:23:00,69.4,19.8,29.88,SSE,158,7.6,7.6,15,-99.99,,---,-99.99,0.00,VWS V14.01,2013-04-05 22:23:00,
2013-04-05 17:29:00,69.4,19.8,29.88,SSE,158,14.1,14.1,15,-99.99,,---,-99.99,0.00,VWS V14.01,2013-04-05 22:29:00,
2013-04-05 17:34:00,69.3,19.7,29.88,SSE,158,8.7,10.5,15,-99.99,,---,-99.99,0.00,VWS V14.01,2013-04-05 22:34:00,
2013-04-05 17:40:00,69.3,19.7,29.88,South,180,5.8,7.4,15,-99.99,,---,-99.99,0.00,VWS V14.01,2013-04-05 22:40:00,
2013-04-05 17:45:00,69.1,19.5,29.88,South,180,8.1,8.1,15,-99.99,,---,-99.99,0.00,VWS V14.01,2013-04-05 22:45:00,
2013-04-05 17:51:00,68.9,19.4,29.88,South,180,5.6,7.8,15,-99.99,,---,-99.99,0.00,VWS V14.01,2013-04-05 22:51:00,
2013-04-05 17:57:00,68.5,19.1,29.88,South,180,7.8,7.8,15,-99.99,,---,-99.99,0.00,VWS V14.01,2013-04-05 22:57:00,
2013-04-05 18:02:00,68.2,18.8,29.88,SSW,202,10.1,10.1,15,-99.99,,---,-99.99,0.00,VWS V14.01,2013-04-05 23:02:00,
2013-04-05 18:07:00,67.8,18.5,29.88,SSE,158,7.8,9.0,15,-99.99,,---,-99.99,0.00,VWS V14.01,2013-04-05 23:07:00,
2013-04-05 18:13:00,66.9,17.8,29.88,SSE,158,12.5,12.5,15,-99.99,,---,-99.99,0.00,VWS V14.01,2013-04-05 23:13:00,
2013-04-05 18:19:00,66.9,17.8,29.88,South,180,12.1,12.1,15,-99.99,,---,-99.99,0.00,VWS V14.01,2013-04-05 23:19:00,
2013-04-05 18:24:00,66.6,17.5,29.88,SSE,158,4.9,10.1,15,-99.99,,---,-99.99,0.00,VWS V14.01,2013-04-05 23:24:00,